Voltar ao catálogo

COSMOS 2491

AtivoMilitarPO
NORAD 39497·PAYLOAD·🇷🇺 Russia

Lançado Dec 25, 2013 de Plesetsk Cosmodrome

Loading…

Próximas Passagens (próximas 24 horas)

TLE

AtualizadoSource: Space-Track

Época: Sep 14, 2026, 23:15 UTC

1 39497U 13076E   26257.96877218  .00000025  00000-0  10610-3 0  9997
2 39497  82.4823 112.2380 0012210 254.9207 105.0522 12.43498711576411

Acompanhe COSMOS 2491 em tempo real com AllMySat

Download on the App Store